Weather History for Fort Polk, LA

Change the Weather History Date:

Wednesday, March 27, 2013

  Actual Average (KPOE) Record (KPOE)
Temperature  
Mean Temperature 48 °F -  
Max Temperature 66 °F 70 °F 80 °F (2012)
Min Temperature 30 °F 51 °F 32 °F (2013)
Degree Days  
Heating Degree Days 17    
Moisture  
Dew Point 28 °F    
Average Humidity 51    
Maximum Humidity 82    
Minimum Humidity 21    
Precipitation  
Precipitation 0.00 in - - ()
Sea Level Pressure  
Sea Level Pressure 30.45 in    
Wind  
Wind Speed 1 mph (West)    
Max Wind Speed 7 mph    
Max Gust Speed -    
Visibility 10 miles    
Events      
Averages and records for this station are not official NWS values.
T = Trace of Precipitation, MM = Missing Value Source: NWS Daily Summary

Daily Weather History Graph

Daily Weather History Graph

Search for Another Location

Airport:

Trip Planner

Search our weather history database for the weather conditions in past years. The results will help you decide how hot, cold, wet, or windy it might be!

Date:

Astronomy

Mar. 27, 2013 Rise Set
Actual Time 7:06 AM CDT 7:27 PM CDT
Civil Twilight 6:42 AM CDT 7:52 PM CDT
Nautical Twilight 6:13 AM CDT 8:20 PM CDT
Astronomical Twilight 5:45 AM CDT 8:49 PM CDT
Moon 8:06 PM CDT (3/27) 7:00 AM CDT (3/27)
Length of Visible Light 13h 09m
Length of Day
12h 21m
Full, 100% of the Moon is Illuminated
Mar 27
Full
Apr 2
Last Quarter
Apr 10
New
Apr 18
First Quarter
Apr 25
Full

Hourly Weather History & Observations

Time (CDT) Temp. Dew Point Humidity Pressure Visibility Wind Dir Wind Speed Gust Speed Precip Events Conditions
12:54 AM 30.9 °F 25.0 °F 79% 30.44 in 10.0 mi Calm Calm - N/A   Clear
1:54 AM 30.0 °F 25.0 °F 82% 30.44 in 10.0 mi Calm Calm - N/A   Clear
2:54 AM 30.9 °F 25.0 °F 79% 30.42 in 10.0 mi Calm Calm - N/A   Clear
3:54 AM 30.9 °F 25.0 °F 79% 30.42 in 10.0 mi Calm Calm - N/A   Clear
4:54 AM 32.0 °F 26.1 °F 79% 30.42 in 10.0 mi Calm Calm - N/A   Clear
5:54 AM 30.9 °F 26.1 °F 82% 30.44 in 10.0 mi Calm Calm - N/A   Clear
7:54 AM 39.0 °F 28.0 °F 65% 30.48 in 10.0 mi Calm Calm - N/A   Clear
8:54 AM 46.0 °F 30.0 °F 54% 30.49 in 10.0 mi Calm Calm - N/A   Clear
9:54 AM 50.0 °F 27.0 °F 41% 30.50 in 10.0 mi Variable 4.6 mph - N/A   Clear
10:54 AM 54.0 °F 25.0 °F 33% 30.50 in 10.0 mi Variable 6.9 mph - N/A   Clear
11:54 AM 57.9 °F 26.1 °F 30% 30.48 in 10.0 mi Variable 3.5 mph - N/A   Clear
12:54 PM 61.0 °F 26.1 °F 26% 30.45 in 10.0 mi Variable 4.6 mph - N/A   Clear
1:54 PM 62.1 °F 26.1 °F 25% 30.41 in 10.0 mi Variable 3.5 mph - N/A   Clear
2:54 PM 64.0 °F 23.0 °F 21% 30.39 in 10.0 mi Variable 4.6 mph - N/A   Clear
3:54 PM 66.0 °F 25.0 °F 21% 30.36 in 10.0 mi West 3.5 mph - N/A   Clear
4:54 PM 66.9 °F 26.1 °F 21% 30.32 in 10.0 mi Variable 4.6 mph - N/A   Clear
7:54 PM 55.9 °F 32.0 °F 40% 30.31 in 10.0 mi Calm Calm - N/A   Clear
8:54 PM 55.0 °F 30.9 °F 40% 30.32 in 10.0 mi Variable 3.5 mph - N/A   Clear
9:54 PM 53.1 °F 30.9 °F 43% 30.34 in 10.0 mi Calm Calm - N/A   Clear
10:54 PM 50.0 °F 35.1 °F 57% 30.36 in 10.0 mi Calm Calm - N/A   Clear
11:54 PM 48.0 °F 37.0 °F 66% 31.09 in 10.0 mi Calm Calm - N/A   Clear